{"data":{"norad_id":59066,"epoch":"2026-09-19T23:07:32.395296Z","epoch_age_seconds":60866,"freshness":"FRESH","line1":"1 59066U 24039R   26262.96356939  .00002280  00000+0  17709-3 0  9990","line2":"2 59066  95.3813 300.1910 0143066 357.2877   2.7557 14.94060501138873","mean_motion":14.94060501,"eccentricity":0.0143066,"inclination_deg":95.3813,"raan_deg":300.191,"arg_perigee_deg":357.2877,"mean_anomaly_deg":2.7557,"bstar":0.00017709,"rev_number":13887,"period_min":96.381639099366,"perigee_km":485.66742550106,"apogee_km":684.91336626494,"semimajor_km":6963.427395883,"source":"CELESTRAK","updated_at":"2026-09-20T09:00:48.037599Z"}}